NKS1835 KDTW-KDFW

Flight info

Callsign NKS1835
Flight time N/A
Altitude 36000
Route SLLAP Q440 IDIOM ODI MCW/N0466F380 OVR IRW/N0459F390 IBAKE JOVEM6
Aircraft B737/M-SDE2E3FGHIRWXY/LB1

Departure

Time 2026-05-06 13:11
Airport Detroit Metropolitan Wayne County Airport (KDTW)

Arrival

Time N/A
Airport Dallas Fort Worth International Airport (KDFW)
Time Latitude Longitude Altitude Speed Heading
2026-05-06 12:04 42.22519 -83.34961 645 ft 0 kts 109°
2026-05-06 12:51 42.22526 -83.34986 646 ft 4 kts 116°
2026-05-06 12:51 42.22540 -83.35016 645 ft 4 kts 138°
2026-05-06 12:51 42.22560 -83.35029 645 ft 3 kts 199°
2026-05-06 12:52 42.22564 -83.35027 646 ft 0 kts 208°
2026-05-06 12:56 42.22547 -83.35043 646 ft 6 kts 215°
2026-05-06 12:57 42.22496 -83.35078 646 ft 11 kts 206°
2026-05-06 12:57 42.22433 -83.35142 645 ft 12 kts 230°
2026-05-06 12:57 42.22384 -83.35229 645 ft 11 kts 231°
2026-05-06 12:57 42.22330 -83.35305 646 ft 11 kts 215°
2026-05-06 12:58 42.22268 -83.35365 645 ft 11 kts 211°
2026-05-06 12:58 42.22203 -83.35414 647 ft 11 kts 207°
2026-05-06 12:58 42.22139 -83.35460 646 ft 10 kts 206°
2026-05-06 12:58 42.22127 -83.35469 645 ft 0 kts 208°
2026-05-06 12:59 42.22122 -83.35473 646 ft 2 kts 208°
2026-05-06 12:59 42.22096 -83.35492 647 ft 6 kts 208°
2026-05-06 12:59 42.22046 -83.35529 646 ft 10 kts 208°
2026-05-06 12:59 42.21976 -83.35581 646 ft 13 kts 208°
2026-05-06 13:00 42.21888 -83.35646 646 ft 16 kts 207°
2026-05-06 13:00 42.21823 -83.35691 644 ft 0 kts 207°
2026-05-06 13:01 42.21816 -83.35696 644 ft 3 kts 207°
2026-05-06 13:01 42.21777 -83.35723 644 ft 9 kts 207°
2026-05-06 13:02 42.21703 -83.35772 643 ft 14 kts 206°
2026-05-06 13:02 42.21613 -83.35839 646 ft 16 kts 208°
2026-05-06 13:02 42.21555 -83.35827 645 ft 6 kts 135°
2026-05-06 13:02 42.21543 -83.35771 645 ft 6 kts 93°
2026-05-06 13:03 42.21542 -83.35712 645 ft 6 kts 88°
2026-05-06 13:03 42.21544 -83.35653 645 ft 7 kts 89°
2026-05-06 13:03 42.21544 -83.35588 645 ft 7 kts 90°
2026-05-06 13:03 42.21545 -83.35514 645 ft 8 kts 89°
2026-05-06 13:04 42.21548 -83.35431 645 ft 9 kts 88°
2026-05-06 13:04 42.21548 -83.35339 645 ft 10 kts 89°
2026-05-06 13:04 42.21552 -83.35240 645 ft 11 kts 85°
2026-05-06 13:04 42.21547 -83.35136 645 ft 12 kts 112°
2026-05-06 13:05 42.21481 -83.35072 645 ft 12 kts 152°
2026-05-06 13:05 42.21407 -83.35010 646 ft 13 kts 150°
2026-05-06 13:05 42.21333 -83.34944 645 ft 15 kts 142°
2026-05-06 13:05 42.21236 -83.34961 644 ft 15 kts 209°
2026-05-06 13:06 42.21143 -83.35026 645 ft 15 kts 213°
2026-05-06 13:06 42.21056 -83.35094 645 ft 14 kts 210°
2026-05-06 13:06 42.20971 -83.35153 645 ft 14 kts 207°
2026-05-06 13:06 42.20891 -83.35217 645 ft 13 kts 206°
2026-05-06 13:07 42.20841 -83.35212 645 ft 0 kts 133°
2026-05-06 13:09 42.20839 -83.35211 645 ft 1 kts 133°
2026-05-06 13:10 42.20826 -83.35184 644 ft 6 kts 119°
2026-05-06 13:10 42.20817 -83.35115 643 ft 10 kts 51°
2026-05-06 13:10 42.20943 -83.35008 644 ft 63 kts 28°
2026-05-06 13:10 42.21687 -83.34457 646 ft 172 kts 27°
2026-05-06 13:11 42.22908 -83.33545 1272 ft 215 kts 27°
2026-05-06 13:11 42.24239 -83.32590 2756 ft 218 kts 25°
2026-05-06 13:11 42.25585 -83.31759 4603 ft 208 kts 18°
2026-05-06 13:11 42.27064 -83.31568 5723 ft 226 kts 344°
2026-05-06 13:12 42.28624 -83.32106 6577 ft 237 kts 346°
2026-05-06 13:12 42.30279 -83.32463 6939 ft 251 kts 350°
2026-05-06 13:12 42.32085 -83.32738 7014 ft 265 kts 352°
2026-05-06 13:12 42.33934 -83.32958 7023 ft 268 kts 353°
2026-05-06 13:13 42.35787 -83.33144 7175 ft 265 kts 353°
2026-05-06 13:13 42.37636 -83.33307 7488 ft 268 kts 354°
2026-05-06 13:13 42.39516 -83.33470 7800 ft 273 kts 354°
2026-05-06 13:13 42.41413 -83.33632 8094 ft 274 kts 354°
2026-05-06 13:14 42.43318 -83.33784 8404 ft 275 kts 354°
2026-05-06 13:14 42.45235 -83.33937 8703 ft 276 kts 354°
2026-05-06 13:14 42.47155 -83.34088 8996 ft 277 kts 353°
2026-05-06 13:14 42.49028 -83.34557 9254 ft 274 kts 332°
2026-05-06 13:15 42.50526 -83.36080 9585 ft 270 kts 309°
2026-05-06 13:15 42.51713 -83.38053 9905 ft 271 kts 305°
2026-05-06 13:15 42.52861 -83.40086 10202 ft 272 kts 304°
2026-05-06 13:15 42.54014 -83.42131 10504 ft 274 kts 303°
2026-05-06 13:16 42.55181 -83.44178 10809 ft 275 kts 303°
2026-05-06 13:16 42.56335 -83.46185 11102 ft 276 kts 303°
2026-05-06 13:16 42.57514 -83.48230 11397 ft 275 kts 303°
2026-05-06 13:16 42.58697 -83.50276 11692 ft 275 kts 302°
2026-05-06 13:17 42.59875 -83.52323 11999 ft 275 kts 301°
2026-05-06 13:17 42.61035 -83.54382 12300 ft 275 kts 301°
2026-05-06 13:17 42.62193 -83.56454 12602 ft 276 kts 301°
2026-05-06 13:17 42.63225 -83.58301 12866 ft 276 kts 300°
2026-05-06 13:18 42.64387 -83.60381 13170 ft 276 kts 300°
2026-05-06 13:18 42.65548 -83.62463 13471 ft 277 kts 300°
2026-05-06 13:18 42.66734 -83.64594 13799 ft 295 kts 300°
2026-05-06 13:18 42.68025 -83.66934 14135 ft 324 kts 301°
2026-05-06 13:19 42.69437 -83.69476 14465 ft 349 kts 301°
2026-05-06 13:19 42.70927 -83.72142 14770 ft 357 kts 301°
2026-05-06 13:19 42.72278 -83.74552 15029 ft 357 kts 301°
2026-05-06 13:19 42.73785 -83.77244 15325 ft 359 kts 301°
2026-05-06 13:20 42.75297 -83.79957 15624 ft 361 kts 301°
2026-05-06 13:20 42.76811 -83.82681 15910 ft 361 kts 301°
2026-05-06 13:20 42.78332 -83.85405 16212 ft 362 kts 302°
2026-05-06 13:20 42.80032 -83.87976 16505 ft 367 kts 308°
2026-05-06 13:21 42.81876 -83.90401 16808 ft 370 kts 310°
2026-05-06 13:21 42.83760 -83.92797 17113 ft 371 kts 310°
2026-05-06 13:21 42.85642 -83.95200 17418 ft 371 kts 309°
2026-05-06 13:21 42.87515 -83.97624 17712 ft 372 kts 309°
2026-05-06 13:22 42.89387 -84.00075 18009 ft 374 kts 309°
2026-05-06 13:22 42.91255 -84.02544 18313 ft 375 kts 308°
2026-05-06 13:22 42.93126 -84.05026 18616 ft 376 kts 308°
2026-05-06 13:22 42.95003 -84.07521 18916 ft 377 kts 308°
2026-05-06 13:23 42.96884 -84.10024 19214 ft 378 kts 308°
2026-05-06 13:23 42.98770 -84.12535 19521 ft 379 kts 308°
2026-05-06 13:23 43.00661 -84.15055 19818 ft 381 kts 308°
2026-05-06 13:23 43.02561 -84.17589 20119 ft 382 kts 308°
2026-05-06 13:24 43.04464 -84.20130 20421 ft 383 kts 308°
2026-05-06 13:24 43.06369 -84.22675 20719 ft 384 kts 308°
2026-05-06 13:24 43.08281 -84.25233 21020 ft 385 kts 308°
2026-05-06 13:24 43.10198 -84.27800 21322 ft 386 kts 308°
2026-05-06 13:25 43.12119 -84.30374 21622 ft 388 kts 308°
2026-05-06 13:25 43.14050 -84.32964 21923 ft 389 kts 308°
2026-05-06 13:25 43.15985 -84.35561 22211 ft 390 kts 308°
2026-05-06 13:25 43.17900 -84.38135 22522 ft 391 kts 307°
2026-05-06 13:26 43.19871 -84.40784 22828 ft 392 kts 307°
2026-05-06 13:26 43.21796 -84.43375 23123 ft 393 kts 307°
2026-05-06 13:26 43.23737 -84.46018 23422 ft 392 kts 305°
2026-05-06 13:26 43.25311 -84.48989 23731 ft 381 kts 294°
2026-05-06 13:27 43.26670 -84.52114 24023 ft 381 kts 294°
2026-05-06 13:27 43.28026 -84.55247 24321 ft 382 kts 294°
2026-05-06 13:27 43.29390 -84.58385 24620 ft 385 kts 294°
2026-05-06 13:27 43.30780 -84.61565 24931 ft 392 kts 294°
2026-05-06 13:28 43.32186 -84.64767 25232 ft 395 kts 294°
2026-05-06 13:28 43.33608 -84.67991 25529 ft 395 kts 294°
2026-05-06 13:28 43.35032 -84.71216 25837 ft 395 kts 294°
2026-05-06 13:28 43.36456 -84.74442 26128 ft 395 kts 294°
2026-05-06 13:29 43.37878 -84.77669 26415 ft 395 kts 294°
2026-05-06 13:29 43.39300 -84.80903 26728 ft 395 kts 294°
2026-05-06 13:29 43.40722 -84.84139 27027 ft 396 kts 294°
2026-05-06 13:29 43.42144 -84.87376 27325 ft 396 kts 294°
2026-05-06 13:30 43.43564 -84.90616 27623 ft 395 kts 294°
2026-05-06 13:30 43.44976 -84.93851 27927 ft 393 kts 293°
2026-05-06 13:30 43.46229 -84.97170 28217 ft 388 kts 289°
2026-05-06 13:30 43.47339 -85.00542 28495 ft 386 kts 287°
2026-05-06 13:31 43.48401 -85.03931 28734 ft 385 kts 287°
2026-05-06 13:31 43.49458 -85.07324 28966 ft 385 kts 287°
2026-05-06 13:31 43.50521 -85.10701 29163 ft 384 kts 287°
2026-05-06 13:31 43.51590 -85.14061 29372 ft 382 kts 287°
2026-05-06 13:32 43.52660 -85.17397 29585 ft 380 kts 288°
2026-05-06 13:32 43.53728 -85.20718 29794 ft 378 kts 287°
2026-05-06 13:32 43.54434 -85.22905 29938 ft 376 kts 287°
2026-05-06 13:32 43.55838 -85.27253 30212 ft 373 kts 287°
2026-05-06 13:33 43.56892 -85.30517 30422 ft 371 kts 287°
2026-05-06 13:33 43.57938 -85.33763 30634 ft 370 kts 287°
2026-05-06 13:33 43.58978 -85.36997 30842 ft 368 kts 287°
2026-05-06 13:33 43.60014 -85.40220 31064 ft 367 kts 287°
2026-05-06 13:34 43.61044 -85.43430 31267 ft 366 kts 287°
2026-05-06 13:34 43.61739 -85.45599 31408 ft 365 kts 287°
2026-05-06 13:34 43.62764 -85.48799 31616 ft 364 kts 287°
2026-05-06 13:34 43.63787 -85.51994 31830 ft 364 kts 287°
2026-05-06 13:35 43.64794 -85.55147 32037 ft 364 kts 287°
2026-05-06 13:35 43.65814 -85.58346 32250 ft 364 kts 287°
2026-05-06 13:35 43.66833 -85.61544 32463 ft 364 kts 287°
2026-05-06 13:35 43.67853 -85.64747 32673 ft 365 kts 287°
2026-05-06 13:36 43.68873 -85.67957 32885 ft 364 kts 287°
2026-05-06 13:36 43.69893 -85.71165 33104 ft 365 kts 288°
2026-05-06 13:36 43.70911 -85.74374 33307 ft 365 kts 288°
2026-05-06 13:36 43.71930 -85.77591 33517 ft 365 kts 288°
2026-05-06 13:37 43.72963 -85.80802 33721 ft 366 kts 288°
2026-05-06 13:37 43.74010 -85.84011 33951 ft 366 kts 288°
2026-05-06 13:37 43.75058 -85.87217 34148 ft 366 kts 288°
2026-05-06 13:37 43.76106 -85.90432 34359 ft 367 kts 288°
2026-05-06 13:38 43.77153 -85.93648 34573 ft 367 kts 288°
2026-05-06 13:38 43.78200 -85.96867 34777 ft 367 kts 288°
2026-05-06 13:38 43.79246 -86.00089 35002 ft 367 kts 288°
2026-05-06 13:38 43.80292 -86.03315 35201 ft 368 kts 288°
2026-05-06 13:39 43.81337 -86.06544 35412 ft 368 kts 288°
2026-05-06 13:39 43.82381 -86.09778 35624 ft 368 kts 288°
2026-05-06 13:39 43.83424 -86.13011 35830 ft 368 kts 288°
2026-05-06 13:39 43.84467 -86.16249 36045 ft 368 kts 288°
2026-05-06 13:40 43.85511 -86.19493 36254 ft 369 kts 288°
2026-05-06 13:40 43.86555 -86.22742 36462 ft 369 kts 288°
2026-05-06 13:40 43.87601 -86.25995 36683 ft 370 kts 288°
2026-05-06 13:40 43.88645 -86.29254 36885 ft 370 kts 288°
2026-05-06 13:41 43.89687 -86.32506 37108 ft 370 kts 288°
2026-05-06 13:41 43.90729 -86.35765 37313 ft 369 kts 288°
2026-05-06 13:41 43.91766 -86.39010 37519 ft 368 kts 288°
2026-05-06 13:41 43.92801 -86.42257 37730 ft 367 kts 288°
2026-05-06 13:42 43.93832 -86.45491 37928 ft 366 kts 288°
2026-05-06 13:42 43.95885 -86.51953 37982 ft 369 kts 288°
2026-05-06 13:43 43.97987 -86.58592 37994 ft 381 kts 288°
2026-05-06 13:43 44.00152 -86.65455 37993 ft 394 kts 288°
2026-05-06 13:44 44.02382 -86.72522 37983 ft 403 kts 288°
2026-05-06 13:44 44.04625 -86.79637 37980 ft 406 kts 288°
2026-05-06 13:45 44.06888 -86.86833 37978 ft 407 kts 288°
2026-05-06 13:45 44.10269 -86.97637 37982 ft 405 kts 288°
2026-05-06 13:46 44.12510 -87.04828 37980 ft 404 kts 288°
2026-05-06 13:46 44.14738 -87.12001 37991 ft 403 kts 288°
2026-05-06 13:47 44.16956 -87.19159 37991 ft 402 kts 288°
2026-05-06 13:47 44.19171 -87.26320 37992 ft 402 kts 288°
2026-05-06 13:48 44.21377 -87.33474 37988 ft 401 kts 288°
2026-05-06 13:48 44.23574 -87.40626 37993 ft 401 kts 288°
2026-05-06 13:49 44.25769 -87.47789 37991 ft 401 kts 288°
2026-05-06 13:49 44.27958 -87.54951 37990 ft 401 kts 288°
2026-05-06 13:50 44.30143 -87.62117 37995 ft 401 kts 288°
2026-05-06 13:50 44.32324 -87.69294 37987 ft 401 kts 288°
2026-05-06 13:51 44.34495 -87.76459 37991 ft 401 kts 288°
2026-05-06 13:51 44.36666 -87.83642 37984 ft 401 kts 287°
2026-05-06 13:52 44.38830 -87.90822 37992 ft 401 kts 288°
2026-05-06 13:52 44.40988 -87.98004 37992 ft 400 kts 287°
2026-05-06 13:53 44.43139 -88.05187 37986 ft 401 kts 287°
2026-05-06 13:53 44.45293 -88.12390 37994 ft 402 kts 287°
2026-05-06 13:54 44.47446 -88.19611 37989 ft 402 kts 287°
2026-05-06 13:54 44.49278 -88.26908 37988 ft 396 kts 276°
2026-05-06 13:55 44.49564 -88.34549 37986 ft 392 kts 264°
2026-05-06 13:55 44.48488 -88.42022 37989 ft 392 kts 256°
2026-05-06 13:56 44.47164 -88.49441 38001 ft 393 kts 256°
2026-05-06 13:56 44.45843 -88.56871 37999 ft 393 kts 256°
2026-05-06 13:57 44.44532 -88.64307 38006 ft 394 kts 256°
2026-05-06 13:57 44.43222 -88.71762 38010 ft 395 kts 256°
2026-05-06 13:58 44.41909 -88.79225 38008 ft 395 kts 256°
2026-05-06 13:58 44.40590 -88.86689 38013 ft 396 kts 256°
2026-05-06 13:59 44.39265 -88.94164 38020 ft 397 kts 256°
2026-05-06 13:59 44.37933 -89.01645 38025 ft 397 kts 256°
2026-05-06 14:00 44.36592 -89.09131 38024 ft 397 kts 256°
2026-05-06 14:00 44.35250 -89.16608 38030 ft 397 kts 256°
2026-05-06 14:01 44.33901 -89.24089 38017 ft 397 kts 256°
2026-05-06 14:01 44.32547 -89.31565 38017 ft 397 kts 256°
2026-05-06 14:02 44.31190 -89.39030 38008 ft 397 kts 256°
2026-05-06 14:02 44.29827 -89.46492 38010 ft 396 kts 256°
2026-05-06 14:03 44.28463 -89.53940 38010 ft 396 kts 256°
2026-05-06 14:03 44.27096 -89.61379 38007 ft 395 kts 256°
2026-05-06 14:04 44.25725 -89.68795 38011 ft 395 kts 256°
2026-05-06 14:04 44.24360 -89.76147 38005 ft 394 kts 256°
2026-05-06 14:05 44.22985 -89.83534 38011 ft 394 kts 256°
2026-05-06 14:05 44.21604 -89.90922 38010 ft 394 kts 256°
2026-05-06 14:06 44.20220 -89.98297 38017 ft 393 kts 256°
2026-05-06 14:06 44.18833 -90.05658 38006 ft 392 kts 256°
2026-05-06 14:07 44.17442 -90.12993 38005 ft 392 kts 256°
2026-05-06 14:07 44.16047 -90.20344 38007 ft 393 kts 256°
2026-05-06 14:08 44.14651 -90.27689 38019 ft 393 kts 256°
2026-05-06 14:08 44.13245 -90.35043 38027 ft 393 kts 256°
2026-05-06 14:09 44.11829 -90.42410 38033 ft 394 kts 256°
2026-05-06 14:09 44.10406 -90.49789 38029 ft 395 kts 256°
2026-05-06 14:10 44.08976 -90.57176 38037 ft 396 kts 256°
2026-05-06 14:10 44.07538 -90.64579 38036 ft 397 kts 255°
2026-05-06 14:11 44.06092 -90.71995 38047 ft 398 kts 255°
2026-05-06 14:11 44.04639 -90.79423 38048 ft 399 kts 255°
2026-05-06 14:12 44.03177 -90.86861 38047 ft 399 kts 255°
2026-05-06 14:12 44.01709 -90.94301 38050 ft 399 kts 255°
2026-05-06 14:13 44.00235 -91.01750 38058 ft 400 kts 255°
2026-05-06 14:13 43.98755 -91.09195 38065 ft 396 kts 255°
2026-05-06 14:14 43.97314 -91.16415 38056 ft 388 kts 255°
2026-05-06 14:14 43.95867 -91.23656 38070 ft 390 kts 255°
2026-05-06 14:15 43.94408 -91.30921 38066 ft 391 kts 255°
2026-05-06 14:15 43.92941 -91.38198 38058 ft 391 kts 255°
2026-05-06 14:16 43.91406 -91.45441 38062 ft 393 kts 251°
2026-05-06 14:16 43.88952 -91.52245 38078 ft 397 kts 243°
2026-05-06 14:17 43.86119 -91.58825 38070 ft 398 kts 242°
2026-05-06 14:17 43.83271 -91.65416 38074 ft 399 kts 243°
2026-05-06 14:18 43.80428 -91.72030 38068 ft 400 kts 242°
2026-05-06 14:18 43.77587 -91.78647 38069 ft 400 kts 242°
2026-05-06 14:19 43.74742 -91.85263 38069 ft 400 kts 242°
2026-05-06 14:19 43.71891 -91.91875 38075 ft 401 kts 242°
2026-05-06 14:20 43.69050 -91.98450 38082 ft 402 kts 242°
2026-05-06 14:20 43.66187 -92.05068 38075 ft 401 kts 242°
2026-05-06 14:21 43.63324 -92.11662 38069 ft 400 kts 242°
2026-05-06 14:21 43.60463 -92.18246 38083 ft 400 kts 242°
2026-05-06 14:22 43.57600 -92.24812 38077 ft 399 kts 242°
2026-05-06 14:22 43.55223 -92.30252 38077 ft 398 kts 242°
2026-05-06 14:23 43.52363 -92.36782 38074 ft 398 kts 242°
2026-05-06 14:23 43.49505 -92.43294 38075 ft 397 kts 242°
2026-05-06 14:24 43.46648 -92.49790 38084 ft 396 kts 242°
2026-05-06 14:24 43.43796 -92.56263 38084 ft 395 kts 242°
2026-05-06 14:25 43.40945 -92.62716 38084 ft 394 kts 242°
2026-05-06 14:25 43.38096 -92.69154 38090 ft 394 kts 242°
2026-05-06 14:26 43.35246 -92.75579 38097 ft 393 kts 242°
2026-05-06 14:26 43.32398 -92.81985 38093 ft 392 kts 242°
2026-05-06 14:27 43.29550 -92.88380 38093 ft 392 kts 242°
2026-05-06 14:27 43.26702 -92.94758 38095 ft 392 kts 242°
2026-05-06 14:28 43.23853 -93.01124 38095 ft 391 kts 242°
2026-05-06 14:28 43.21005 -93.07474 38091 ft 391 kts 242°
2026-05-06 14:29 43.18153 -93.13819 38099 ft 391 kts 242°
2026-05-06 14:29 43.15301 -93.20156 38101 ft 391 kts 242°
2026-05-06 14:30 43.12450 -93.26475 38104 ft 391 kts 242°
2026-05-06 14:30 43.09470 -93.32712 38096 ft 393 kts 236°
2026-05-06 14:31 43.05635 -93.38126 38105 ft 398 kts 229°
2026-05-06 14:31 43.01600 -93.43319 38105 ft 398 kts 229°
2026-05-06 14:32 42.97579 -93.48505 38110 ft 397 kts 230°
2026-05-06 14:32 42.93573 -93.53683 38112 ft 397 kts 230°
2026-05-06 14:33 42.89562 -93.58868 38111 ft 396 kts 229°
2026-05-06 14:33 42.85603 -93.63980 38113 ft 396 kts 229°
2026-05-06 14:34 42.81604 -93.69137 38121 ft 395 kts 229°
2026-05-06 14:34 42.77612 -93.74270 38121 ft 394 kts 230°
2026-05-06 14:35 42.73626 -93.79385 38119 ft 394 kts 230°
2026-05-06 14:35 42.69645 -93.84486 38122 ft 392 kts 229°
2026-05-06 14:36 42.65675 -93.89564 38118 ft 391 kts 230°
2026-05-06 14:36 42.61713 -93.94624 38119 ft 391 kts 230°
2026-05-06 14:37 42.57757 -93.99667 38123 ft 390 kts 230°
2026-05-06 14:37 42.53802 -94.04700 38120 ft 390 kts 230°
2026-05-06 14:38 42.49846 -94.09723 38130 ft 389 kts 229°
2026-05-06 14:38 42.45894 -94.14732 38131 ft 389 kts 229°
2026-05-06 14:39 42.41945 -94.19729 38128 ft 389 kts 229°
2026-05-06 14:39 42.37994 -94.24717 38130 ft 388 kts 229°
2026-05-06 14:40 42.34042 -94.29700 38130 ft 388 kts 229°
2026-05-06 14:40 42.30095 -94.34668 38129 ft 388 kts 229°
2026-05-06 14:41 42.26168 -94.39599 38130 ft 388 kts 229°
2026-05-06 14:41 42.22212 -94.44560 38129 ft 388 kts 229°
2026-05-06 14:42 42.18254 -94.49515 38130 ft 388 kts 229°
2026-05-06 14:42 42.14292 -94.54466 38130 ft 389 kts 229°
2026-05-06 14:43 42.10317 -94.59422 38130 ft 390 kts 229°
2026-05-06 14:43 42.06335 -94.64379 38125 ft 390 kts 229°
2026-05-06 14:44 42.02346 -94.69333 38130 ft 391 kts 229°
2026-05-06 14:45 41.96359 -94.76761 38142 ft 389 kts 230°
2026-05-06 14:45 41.92417 -94.81632 38121 ft 382 kts 230°
2026-05-06 14:46 41.88547 -94.86413 38127 ft 380 kts 230°
2026-05-06 14:46 41.84665 -94.91199 38141 ft 378 kts 230°
2026-05-06 14:47 41.80791 -94.95970 38151 ft 378 kts 230°
2026-05-06 14:47 41.76908 -95.00742 38134 ft 379 kts 230°
2026-05-06 14:48 41.73015 -95.05519 38133 ft 380 kts 230°
2026-05-06 14:48 41.69114 -95.10294 38142 ft 380 kts 230°
2026-05-06 14:49 41.65210 -95.15064 38148 ft 380 kts 230°
2026-05-06 14:49 41.61305 -95.19829 38154 ft 380 kts 230°
2026-05-06 14:50 41.57395 -95.24592 38159 ft 381 kts 229°
2026-05-06 14:50 41.53470 -95.29366 38163 ft 382 kts 229°
2026-05-06 14:51 41.49541 -95.34137 38158 ft 382 kts 229°
2026-05-06 14:51 41.45603 -95.38909 38158 ft 382 kts 229°
2026-05-06 14:52 41.41672 -95.43667 38161 ft 382 kts 229°
2026-05-06 14:52 41.37739 -95.48418 38157 ft 382 kts 229°
2026-05-06 14:53 41.33805 -95.53162 38160 ft 382 kts 229°
2026-05-06 14:53 41.29868 -95.57901 38155 ft 382 kts 229°
2026-05-06 14:54 41.25931 -95.62635 38155 ft 381 kts 229°
2026-05-06 14:54 41.21998 -95.67353 38160 ft 381 kts 229°
2026-05-06 14:55 41.17851 -95.71777 38163 ft 390 kts 220°
2026-05-06 14:55 41.12928 -95.75014 38147 ft 403 kts 210°
2026-05-06 14:56 41.07458 -95.77048 38152 ft 409 kts 206°
2026-05-06 14:56 41.01946 -95.78913 38162 ft 408 kts 206°
2026-05-06 14:57 40.96464 -95.80779 38164 ft 406 kts 206°
2026-05-06 14:57 40.91010 -95.82660 38168 ft 404 kts 207°
2026-05-06 14:58 40.85587 -95.84545 38174 ft 402 kts 207°
2026-05-06 14:58 40.80215 -95.86412 38171 ft 402 kts 207°
2026-05-06 14:59 40.74768 -95.88299 38174 ft 402 kts 207°
2026-05-06 14:59 40.69367 -95.90165 38178 ft 401 kts 208°
2026-05-06 15:00 40.63979 -95.92026 38188 ft 400 kts 208°
2026-05-06 15:00 40.58592 -95.93880 38186 ft 400 kts 208°
2026-05-06 15:01 40.53252 -95.95719 38185 ft 399 kts 208°
2026-05-06 15:01 40.47877 -95.97566 38184 ft 399 kts 208°
2026-05-06 15:02 40.42504 -95.99409 38188 ft 399 kts 208°
2026-05-06 15:02 40.37132 -96.01249 38181 ft 399 kts 208°
2026-05-06 15:03 40.31767 -96.03083 38181 ft 398 kts 207°
2026-05-06 15:03 40.26409 -96.04913 38189 ft 398 kts 207°
2026-05-06 15:04 40.21047 -96.06739 38186 ft 398 kts 207°
2026-05-06 15:04 40.15693 -96.08561 38178 ft 398 kts 207°
2026-05-06 15:05 40.10341 -96.10379 38180 ft 397 kts 207°
2026-05-06 15:05 40.04999 -96.12192 38185 ft 397 kts 207°
2026-05-06 15:06 39.99642 -96.14009 38187 ft 397 kts 207°
2026-05-06 15:06 39.94288 -96.15814 38186 ft 397 kts 207°
2026-05-06 15:07 39.88934 -96.17618 38180 ft 398 kts 207°
2026-05-06 15:07 39.83573 -96.19423 38183 ft 398 kts 207°
2026-05-06 15:08 39.78219 -96.21223 38154 ft 398 kts 207°
2026-05-06 15:08 39.72877 -96.23016 38178 ft 396 kts 207°
2026-05-06 15:09 39.68461 -96.24496 38181 ft 394 kts 207°
2026-05-06 15:09 39.63165 -96.26273 38185 ft 393 kts 207°
2026-05-06 15:10 39.57874 -96.28043 38187 ft 392 kts 207°
2026-05-06 15:10 39.52585 -96.29811 38185 ft 393 kts 207°
2026-05-06 15:11 39.47294 -96.31573 38186 ft 393 kts 207°
2026-05-06 15:11 39.42009 -96.33333 38187 ft 392 kts 207°
2026-05-06 15:12 39.36733 -96.35084 38188 ft 391 kts 207°
2026-05-06 15:12 39.31465 -96.36829 38180 ft 390 kts 207°
2026-05-06 15:13 39.26215 -96.38568 38188 ft 389 kts 207°
2026-05-06 15:13 39.21010 -96.40289 38188 ft 388 kts 207°
2026-05-06 15:14 39.15754 -96.42024 38191 ft 387 kts 207°
2026-05-06 15:14 39.10548 -96.43741 38192 ft 386 kts 207°
2026-05-06 15:15 39.05384 -96.45440 38199 ft 385 kts 207°
2026-05-06 15:15 39.00195 -96.47146 38187 ft 384 kts 207°
2026-05-06 15:16 38.95028 -96.48840 38192 ft 383 kts 208°
2026-05-06 15:16 38.89875 -96.50528 38196 ft 382 kts 208°
2026-05-06 15:17 38.84735 -96.52210 38183 ft 381 kts 208°
2026-05-06 15:17 38.79609 -96.53886 38188 ft 380 kts 208°
2026-05-06 15:18 38.74492 -96.55555 38187 ft 379 kts 208°
2026-05-06 15:18 38.69383 -96.57219 38173 ft 378 kts 208°
2026-05-06 15:19 38.64282 -96.58879 38173 ft 378 kts 208°
2026-05-06 15:19 38.59197 -96.60529 38175 ft 377 kts 208°
2026-05-06 15:20 38.54116 -96.62177 38173 ft 376 kts 208°
2026-05-06 15:20 38.49046 -96.63818 38176 ft 376 kts 208°
2026-05-06 15:21 38.43984 -96.65455 38179 ft 376 kts 208°
2026-05-06 15:21 38.38918 -96.67091 38174 ft 375 kts 208°
2026-05-06 15:22 38.33857 -96.68723 38171 ft 375 kts 208°
2026-05-06 15:22 38.28807 -96.70349 38175 ft 374 kts 208°
2026-05-06 15:23 38.23761 -96.71972 38174 ft 374 kts 208°
2026-05-06 15:23 38.18716 -96.73591 38173 ft 374 kts 208°
2026-05-06 15:24 38.13677 -96.75207 38177 ft 373 kts 208°
2026-05-06 15:24 38.08653 -96.76814 38175 ft 372 kts 208°
2026-05-06 15:25 38.03633 -96.78420 38175 ft 372 kts 208°
2026-05-06 15:25 37.98613 -96.80025 38175 ft 372 kts 208°
2026-05-06 15:26 37.93646 -96.81605 38172 ft 370 kts 209°
2026-05-06 15:26 37.88660 -96.83191 38177 ft 369 kts 209°
2026-05-06 15:27 37.83681 -96.84773 38177 ft 369 kts 209°
2026-05-06 15:27 37.78709 -96.86352 38173 ft 368 kts 209°
2026-05-06 15:28 37.73743 -96.87926 38177 ft 368 kts 209°
2026-05-06 15:28 37.68781 -96.89498 38174 ft 368 kts 209°
2026-05-06 15:29 37.63808 -96.91071 38174 ft 368 kts 209°
2026-05-06 15:29 37.58838 -96.92642 38176 ft 369 kts 209°
2026-05-06 15:30 37.53858 -96.94211 38176 ft 369 kts 209°
2026-05-06 15:30 37.48877 -96.95779 38171 ft 369 kts 209°
2026-05-06 15:31 37.43896 -96.97345 38179 ft 369 kts 209°
2026-05-06 15:31 37.38911 -96.98910 38177 ft 370 kts 209°
2026-05-06 15:32 37.31423 -97.01256 38168 ft 369 kts 208°
2026-05-06 15:32 37.26439 -97.02814 38164 ft 369 kts 208°
2026-05-06 15:33 37.21466 -97.04368 38164 ft 368 kts 208°
2026-05-06 15:33 37.16499 -97.05919 38159 ft 368 kts 208°
2026-05-06 15:34 37.11536 -97.07465 38167 ft 368 kts 208°
2026-05-06 15:34 37.06567 -97.09012 38160 ft 368 kts 208°
2026-05-06 15:35 37.01596 -97.10556 38161 ft 368 kts 208°
2026-05-06 15:35 36.96667 -97.12085 38157 ft 367 kts 208°
2026-05-06 15:36 36.91667 -97.13636 38145 ft 368 kts 208°
2026-05-06 15:36 36.86729 -97.15165 38155 ft 368 kts 208°
2026-05-06 15:37 36.81752 -97.16705 38134 ft 369 kts 208°
2026-05-06 15:37 36.76775 -97.18239 38139 ft 368 kts 208°
2026-05-06 15:38 36.71800 -97.19773 38134 ft 368 kts 208°
2026-05-06 15:38 36.66819 -97.21305 38133 ft 368 kts 208°
2026-05-06 15:39 36.61841 -97.22837 38146 ft 368 kts 208°
2026-05-06 15:39 36.56864 -97.24365 38149 ft 368 kts 208°
2026-05-06 15:40 36.51887 -97.25892 38133 ft 369 kts 208°
2026-05-06 15:40 36.46907 -97.27416 38133 ft 369 kts 208°
2026-05-06 15:41 36.41928 -97.28938 38133 ft 368 kts 208°
2026-05-06 15:41 36.36952 -97.30457 38132 ft 368 kts 208°
2026-05-06 15:42 36.31973 -97.31976 38127 ft 368 kts 208°
2026-05-06 15:42 36.27000 -97.33491 38131 ft 368 kts 208°
2026-05-06 15:43 36.22025 -97.35005 38129 ft 368 kts 208°
2026-05-06 15:43 36.17043 -97.36519 38127 ft 369 kts 208°
2026-05-06 15:44 36.12076 -97.38025 38126 ft 369 kts 208°
2026-05-06 15:44 36.07093 -97.39535 38123 ft 368 kts 208°
2026-05-06 15:45 36.02114 -97.41041 38114 ft 367 kts 208°
2026-05-06 15:45 35.97189 -97.42532 38120 ft 367 kts 208°
2026-05-06 15:46 35.92225 -97.44031 38124 ft 367 kts 208°
2026-05-06 15:46 35.87255 -97.45529 38119 ft 368 kts 208°
2026-05-06 15:47 35.82287 -97.47024 38121 ft 368 kts 208°
2026-05-06 15:47 35.77316 -97.48518 38124 ft 368 kts 208°
2026-05-06 15:48 35.72346 -97.50012 38120 ft 367 kts 208°
2026-05-06 15:48 35.67374 -97.51502 38110 ft 368 kts 208°
2026-05-06 15:49 35.62399 -97.52993 38109 ft 368 kts 208°
2026-05-06 15:49 35.57454 -97.54472 38114 ft 368 kts 208°
2026-05-06 15:50 35.52478 -97.55960 38109 ft 368 kts 208°
2026-05-06 15:50 35.47491 -97.57448 38113 ft 369 kts 208°
2026-05-06 15:51 35.42504 -97.58935 38111 ft 369 kts 208°
2026-05-06 15:51 35.37340 -97.59993 38114 ft 391 kts 198°
2026-05-06 15:52 35.31764 -97.59627 38102 ft 418 kts 186°
2026-05-06 15:52 35.26067 -97.57899 38103 ft 429 kts 182°
2026-05-06 15:53 35.20314 -97.56000 38089 ft 428 kts 182°
2026-05-06 15:53 35.14564 -97.54157 38080 ft 426 kts 182°
2026-05-06 15:54 35.08823 -97.52349 38086 ft 425 kts 183°
2026-05-06 15:54 35.03096 -97.50577 38086 ft 419 kts 186°
2026-05-06 15:55 35.00308 -97.50315 37901 ft 390 kts 199°
2026-05-06 15:55 34.97622 -97.50552 37676 ft 385 kts 200°
2026-05-06 15:55 34.94962 -97.50818 37418 ft 382 kts 200°
2026-05-06 15:55 34.92312 -97.51085 37172 ft 382 kts 200°
2026-05-06 15:56 34.89660 -97.51345 36929 ft 382 kts 200°
2026-05-06 15:56 34.87903 -97.51511 36760 ft 382 kts 200°
2026-05-06 15:56 34.84361 -97.51834 36424 ft 382 kts 199°
2026-05-06 15:56 34.82609 -97.51990 36264 ft 381 kts 199°
2026-05-06 15:57 34.79961 -97.52221 36009 ft 382 kts 199°
2026-05-06 15:57 34.77303 -97.52453 35765 ft 386 kts 199°
2026-05-06 15:57 34.74606 -97.52693 35525 ft 393 kts 199°
2026-05-06 15:57 34.71855 -97.52936 35289 ft 399 kts 198°
2026-05-06 15:58 34.69081 -97.53173 35038 ft 400 kts 198°
2026-05-06 15:58 34.66306 -97.53406 34784 ft 400 kts 198°
2026-05-06 15:58 34.63530 -97.53638 34533 ft 400 kts 198°
2026-05-06 15:58 34.60753 -97.53871 34282 ft 400 kts 198°
2026-05-06 15:59 34.57981 -97.54105 34030 ft 399 kts 198°
2026-05-06 15:59 34.55221 -97.54338 33789 ft 398 kts 198°
2026-05-06 15:59 34.52461 -97.54573 33543 ft 398 kts 198°
2026-05-06 15:59 34.49737 -97.54805 33293 ft 397 kts 198°
2026-05-06 16:00 34.46981 -97.55040 33038 ft 398 kts 198°
2026-05-06 16:00 34.44215 -97.55277 32796 ft 399 kts 197°
2026-05-06 16:00 34.41436 -97.55517 32547 ft 402 kts 197°
2026-05-06 16:00 34.38639 -97.55757 32304 ft 404 kts 197°
2026-05-06 16:01 34.35825 -97.55998 32053 ft 407 kts 197°
2026-05-06 16:01 34.32992 -97.56238 31810 ft 409 kts 197°
2026-05-06 16:01 34.30152 -97.56479 31562 ft 410 kts 196°
2026-05-06 16:01 34.27301 -97.56719 31316 ft 411 kts 196°
2026-05-06 16:02 34.24438 -97.56959 31065 ft 413 kts 196°
2026-05-06 16:02 34.21573 -97.57201 30817 ft 414 kts 196°
2026-05-06 16:02 34.18704 -97.57444 30568 ft 414 kts 195°
2026-05-06 16:02 34.15827 -97.57688 30322 ft 415 kts 195°
2026-05-06 16:03 34.12941 -97.57931 30070 ft 416 kts 195°
2026-05-06 16:03 34.10053 -97.58176 29817 ft 416 kts 195°
2026-05-06 16:03 34.07162 -97.58421 29566 ft 417 kts 195°
2026-05-06 16:03 34.04268 -97.58665 28606 ft 418 kts 195°
2026-05-06 16:04 34.01443 -97.58892 28362 ft 400 kts 195°
2026-05-06 16:04 33.98739 -97.59109 28216 ft 381 kts 195°
2026-05-06 16:04 33.96148 -97.59324 27948 ft 367 kts 196°
2026-05-06 16:04 33.93622 -97.59545 27562 ft 362 kts 196°
2026-05-06 16:05 33.91073 -97.59774 27214 ft 374 kts 195°
2026-05-06 16:05 33.88449 -97.60006 26825 ft 382 kts 195°
2026-05-06 16:05 33.85789 -97.60229 26409 ft 382 kts 195°
2026-05-06 16:05 33.83147 -97.60444 26015 ft 379 kts 195°
2026-05-06 16:06 33.80521 -97.60659 25627 ft 377 kts 195°
2026-05-06 16:06 33.77914 -97.60875 25233 ft 375 kts 195°
2026-05-06 16:06 33.75314 -97.61093 24845 ft 374 kts 195°
2026-05-06 16:06 33.72728 -97.61310 24460 ft 372 kts 195°
2026-05-06 16:07 33.70145 -97.61528 24078 ft 371 kts 194°
2026-05-06 16:07 33.67574 -97.61744 23691 ft 370 kts 194°
2026-05-06 16:07 33.65006 -97.61959 23301 ft 369 kts 194°
2026-05-06 16:07 33.62447 -97.62173 22840 ft 370 kts 194°
2026-05-06 16:08 33.59912 -97.62384 22329 ft 368 kts 194°
2026-05-06 16:08 33.57336 -97.62596 21806 ft 365 kts 194°
2026-05-06 16:08 33.54847 -97.62801 21302 ft 361 kts 194°
2026-05-06 16:08 33.52356 -97.63007 20787 ft 357 kts 194°
2026-05-06 16:09 33.49901 -97.63211 20286 ft 351 kts 194°
2026-05-06 16:09 33.47483 -97.63410 19798 ft 346 kts 194°
2026-05-06 16:09 33.45095 -97.63609 19312 ft 343 kts 194°
2026-05-06 16:09 33.42725 -97.63806 18842 ft 341 kts 194°
2026-05-06 16:10 33.40336 -97.63817 18325 ft 353 kts 181°
2026-05-06 16:10 33.37947 -97.62944 17839 ft 366 kts 166°
2026-05-06 16:10 33.35782 -97.61239 17314 ft 382 kts 148°
2026-05-06 16:10 33.33866 -97.59017 16768 ft 383 kts 144°
2026-05-06 16:11 33.31994 -97.56775 16186 ft 376 kts 146°
2026-05-06 16:11 33.30141 -97.54577 15663 ft 375 kts 143°
2026-05-06 16:11 33.28322 -97.52365 15119 ft 371 kts 143°
2026-05-06 16:11 33.26518 -97.50204 14730 ft 363 kts 143°
2026-05-06 16:12 33.24744 -97.48109 14377 ft 354 kts 143°
2026-05-06 16:12 33.22999 -97.46066 14038 ft 349 kts 144°
2026-05-06 16:12 33.21276 -97.44055 13712 ft 344 kts 143°
2026-05-06 16:12 33.19567 -97.42063 13391 ft 342 kts 143°
2026-05-06 16:13 33.17870 -97.40083 13060 ft 340 kts 143°
2026-05-06 16:13 33.16186 -97.38117 12736 ft 337 kts 142°
2026-05-06 16:13 33.14526 -97.36176 12406 ft 330 kts 142°
2026-05-06 16:13 33.12906 -97.34282 12101 ft 323 kts 142°
2026-05-06 16:14 33.11335 -97.32446 12003 ft 308 kts 142°
2026-05-06 16:14 33.09836 -97.30691 11993 ft 299 kts 142°
2026-05-06 16:14 33.08354 -97.28961 11998 ft 298 kts 142°
2026-05-06 16:14 33.06867 -97.27232 11997 ft 299 kts 142°
2026-05-06 16:15 33.05378 -97.25502 12001 ft 299 kts 142°
2026-05-06 16:15 33.03890 -97.23769 11989 ft 300 kts 142°
2026-05-06 16:15 33.02402 -97.22035 11981 ft 297 kts 142°
2026-05-06 16:15 33.00951 -97.20340 11962 ft 285 kts 142°
2026-05-06 16:16 32.99589 -97.18748 11956 ft 271 kts 143°
2026-05-06 16:16 32.98163 -97.17437 11951 ft 246 kts 166°
2026-05-06 16:16 32.96550 -97.16939 11753 ft 239 kts 181°
2026-05-06 16:16 32.94894 -97.16810 11530 ft 239 kts 184°
2026-05-06 16:17 32.93234 -97.16742 11279 ft 238 kts 184°
2026-05-06 16:17 32.91590 -97.16677 11042 ft 236 kts 184°
2026-05-06 16:17 32.89955 -97.16604 10808 ft 234 kts 183°
2026-05-06 16:17 32.88330 -97.16527 10587 ft 233 kts 183°
2026-05-06 16:18 32.86715 -97.16446 10351 ft 232 kts 182°
2026-05-06 16:18 32.85108 -97.16361 10126 ft 231 kts 182°
2026-05-06 16:18 32.83504 -97.16274 9853 ft 231 kts 182°
2026-05-06 16:18 32.81906 -97.16187 9733 ft 230 kts 181°
2026-05-06 16:19 32.80282 -97.16099 9515 ft 236 kts 181°
2026-05-06 16:19 32.78631 -97.16056 9297 ft 238 kts 183°
2026-05-06 16:19 32.76974 -97.16058 9066 ft 238 kts 183°
2026-05-06 16:19 32.75320 -97.16064 8838 ft 238 kts 183°
2026-05-06 16:20 32.73667 -97.16070 8611 ft 237 kts 182°
2026-05-06 16:20 32.72016 -97.16074 8382 ft 236 kts 182°
2026-05-06 16:20 32.70377 -97.16077 8158 ft 235 kts 182°
2026-05-06 16:20 32.68741 -97.16079 7933 ft 235 kts 182°
2026-05-06 16:21 32.67111 -97.16079 7716 ft 233 kts 182°
2026-05-06 16:21 32.65493 -97.16079 7487 ft 232 kts 182°
2026-05-06 16:21 32.63885 -97.16079 7262 ft 230 kts 182°
2026-05-06 16:21 32.62288 -97.16079 7043 ft 229 kts 182°
2026-05-06 16:22 32.60699 -97.16077 6824 ft 227 kts 182°
2026-05-06 16:22 32.59144 -97.16062 6606 ft 226 kts 177°
2026-05-06 16:22 32.57674 -97.15425 6384 ft 230 kts 144°
2026-05-06 16:22 32.56671 -97.13959 6183 ft 233 kts 115°
2026-05-06 16:23 32.56390 -97.12076 5963 ft 235 kts 86°
2026-05-06 16:23 32.56875 -97.10264 5772 ft 228 kts 61°
2026-05-06 16:23 32.57687 -97.08689 5555 ft 220 kts 58°
2026-05-06 16:23 32.58485 -97.07187 5333 ft 211 kts 57°
2026-05-06 16:24 32.59479 -97.05989 5086 ft 201 kts 21°
2026-05-06 16:24 32.60784 -97.05667 4949 ft 186 kts
2026-05-06 16:24 32.62045 -97.05600 4749 ft 176 kts 359°
2026-05-06 16:24 32.63242 -97.05591 4577 ft 169 kts 359°
2026-05-06 16:25 32.64407 -97.05591 4440 ft 167 kts 359°
2026-05-06 16:25 32.65555 -97.05589 4300 ft 168 kts 359°
2026-05-06 16:25 32.66724 -97.05584 4149 ft 168 kts 360°
2026-05-06 16:25 32.67895 -97.05579 3981 ft 168 kts
2026-05-06 16:26 32.69068 -97.05574 3831 ft 168 kts
2026-05-06 16:26 32.70208 -97.05568 3650 ft 159 kts
2026-05-06 16:26 32.71294 -97.05563 3523 ft 153 kts
2026-05-06 16:26 32.72313 -97.05559 3443 ft 138 kts
2026-05-06 16:27 32.73248 -97.05555 3251 ft 131 kts
2026-05-06 16:27 32.74152 -97.05551 3136 ft 129 kts
2026-05-06 16:27 32.75048 -97.05546 3006 ft 129 kts
2026-05-06 16:27 32.75943 -97.05543 2856 ft 129 kts
2026-05-06 16:28 32.76841 -97.05539 2703 ft 129 kts
2026-05-06 16:28 32.77734 -97.05534 2628 ft 131 kts
2026-05-06 16:28 32.78651 -97.05530 2457 ft 131 kts
2026-05-06 16:28 32.79553 -97.05526 2274 ft 130 kts
2026-05-06 16:29 32.80458 -97.05523 2098 ft 132 kts
2026-05-06 16:29 32.81365 -97.05515 1922 ft 129 kts
2026-05-06 16:29 32.82261 -97.05511 1750 ft 130 kts
2026-05-06 16:29 32.83166 -97.05509 1573 ft 132 kts
2026-05-06 16:30 32.84071 -97.05505 1394 ft 133 kts
2026-05-06 16:30 32.84696 -97.05493 1253 ft 137 kts
2026-05-06 16:30 32.85977 -97.05497 1035 ft 140 kts
2026-05-06 16:30 32.86936 -97.05485 821 ft 136 kts
2026-05-06 16:31 32.87799 -97.05486 638 ft 128 kts
2026-05-06 16:31 32.88502 -97.05475 595 ft 103 kts
2026-05-06 16:31 32.88961 -97.05552 596 ft 71 kts 337°